CZ-3B R/B

Last updated on Fri Jun 19 2026 17:08:37 GMT+0000 (Coordinated Universal Time)

1 69571U 26136B 26168.13176650 .00174117 -12277-4 22190-3 0 9990 2 69571 63.4344 355.9302 7369171 171.4047 217.7535 2.23819647 34
UTC large
Height (km)
Speed (km/s)
/
Latitude / Longitude
Inclination (degrees)
Orbital Period (minutes)
Azimuth
Elevation
Range (km)
Doppler Factor

Next 0 passes for location: London (51.5072 / 0.1276)

No passes found over London.
CZ-3B R/B